Regional Weather Roundup
Issued by NWS

Home | Current Version | Previous Version | Text Only | Print | Product List | Glossary Off
Versions: 1 2 3 4 5 6 7 8 9 10 11 12 13 14 15 16 17 18 19 20 21 22 23 24 25 26 27

000
ASUS45 KBOI 221810
RWRID

IDAHO REGIONAL WEATHER ROUNDUP
NATIONAL WEATHER SERVICE BOISE ID
1100 AM MST WED FEB 22 2017

NOTE: "FAIR" INDICATES FEW OR NO CLOUDS BELOW 12000 FEET
WITH NO SIGNIFICANT WEATHER AND/OR OBSTRUCTIONS TO VISIBILITY

IDZ012-014-221900-
SOUTHWEST IDAHO


CITY           SKY/WX    TMP DP  RH WIND       PRES   REMARKS
BOISE          PTSUNNY   40  27  59 W7        29.98F
CALDWELL       PTSUNNY   39  29  67 SW6       30.01F WCI  35
MOUNTAIN HOME  PTSUNNY   36  36 100 NW3       29.97F
$$

IDZ016-017-221900-
SOUTHCENTRAL IDAHO


CITY           SKY/WX    TMP DP  RH WIND       PRES   REMARKS
JEROME           N/A    N/A N/A N/A MISG      29.96F
TWIN FALLS     NOT AVBL
$$

IDZ019>023-221900-
SOUTHEAST IDAHO


CITY           SKY/WX    TMP DP  RH WIND       PRES   REMARKS
IDAHO FALLS    MOSUNNY   33  27  78 SW15      29.96F WCI  23
POCATELLO      MOSUNNY   40  25  55 SW10      29.96F WCI  33
REXBURG        MOSUNNY   32  25  75 SW16G23   29.94F WCI  21
$$

IDZ006-010-011-018-031-032-221900-
CENTRAL IDAHO MOUNTAINS


CITY           SKY/WX    TMP DP  RH WIND       PRES   REMARKS
MCCALL         PTSUNNY   34  23  64 CALM      29.91F
STANLEY          N/A     22  13  68 CALM      29.90F
SALMON         PTSUNNY   36  28  75 NE5       29.93F WCI  32
CHALLIS        SUNNY     31  18  58 CALM      29.93F
$$

IDZ002-004-006-007-026-221900-
NORTHERN IDAHO


CITY           SKY/WX    TMP DP  RH WIND       PRES   REMARKS
LEWISTON       CLOUDY    39  35  86 CALM      30.09R
LOWELL           N/A     34  32  92 CALM      30.10S
COEUR D`ALENE  CLOUDY    33  32  96 SW3       30.05S FOG
MULLAN PASS    SNOW      27  24  89 CALM      29.89S VSB 1/4
$$




USA.gov is the U.S. government's official web portal to all federal, state and local government web resources and services.